Location: Bright Sky Observatory
(40.7821°N, 74.2425°W)
Time: 22:03:11
(UTC-04:00)

Amateur Radio Satellites - All Passes

Search period start: 27 April 2015 21:33
Search period end: 28 April 2015 21:33
Location: Bright Sky Observatory, 40.7821°N, 74.2425°W

Satellite Date Start Highest point End Downlink Frequencies (MHz)
Time Altitude Azimuth
COMPASS 1 27 Apr 21:36:33 21:40:39 47° 261° (W) 21:44:47 437.405
CINEMA 3 27 Apr 21:37:21 21:41:43 76° 259° (W) 21:46:19 145.822/145.860
DELFI C3 27 Apr 21:37:51 21:41:47 50° 74° (ENE) 21:45:46 145.870
O/OREOS (USA 219) 27 Apr 21:41:53 21:46:03 36° 106° (ESE) 21:50:16 437.305
UWE-3 27 Apr 21:42:45 21:47:01 53° 73° (ENE) 21:51:27 435.000/436.395/437.385
FUNcube-1 27 Apr 21:46:20 21:50:28 45° 73° (ENE) 21:54:46 145.935
UKube-1 27 Apr 21:48:33 21:52:14 29° 69° (ENE) 21:56:00 .
HUMSAT D 27 Apr 21:50:06 21:53:30 24° 69° (ENE) 21:57:00 437.325/437.525
PHONESAT 2.4 27 Apr 21:50:07 21:53:21 32° 204° (SSW) 21:56:35 2401.200-2431.200
ESTCUBE 1 27 Apr 21:57:58 21:58:20 10° 62° (ENE) 21:58:58 437.505/2401.250
HO-68 27 Apr 22:00:09 22:06:25 31° 266° (W) 22:12:34 435.675
SO-50 27 Apr 22:01:08 22:02:52 11° 252° (WSW) 22:04:18 436.795
Oscar 11 27 Apr 22:06:37 22:10:54 56° 260° (W) 22:15:13 145.826/435.025
SEEDS 27 Apr 22:07:01 22:10:07 19° 268° (W) 22:13:05 437.485
ZACube-1 27 Apr 22:12:26 22:16:48 89° 72° (ENE) 22:21:19 437.345
50 SAT 27 Apr 22:14:51 22:18:12 26° 70° (ENE) 22:21:38 437.505
TIGRISAT 27 Apr 22:16:24 22:16:57 10° 86° (E) 22:17:50 435.000
AAUSAT CUBESAT 2 27 Apr 22:18:28 22:21:37 19° 268° (W) 22:24:38 437.432
UNISAT 6 27 Apr 22:20:38 22:22:26 12° 87° (E) 22:24:30 437.425
RS-15 27 Apr 22:20:43 22:31:44 50° 45° (NE) 22:43:19 29.354- 29.394
CANX-2 27 Apr 22:22:06 22:22:49 10° 273° (W) 22:23:14 2200.000
CUBEBUG 1 27 Apr 22:24:44 22:27:25 17° 66° (ENE) 22:30:14 437.445
VELOX 1 27 Apr 22:24:44 22:28:41 34° 70° (ENE) 22:32:42 145.980
Cosmos 2491 27 Apr 22:39:30 22:48:02 63° 93° (E) 22:56:41 435.465 / 435.565
AISAT 27 Apr 22:43:09 22:47:27 57° 74° (ENE) 22:51:47 437.250
DX 1 27 Apr 22:44:08 22:48:26 63° 259° (WSW) 22:52:45 434.975-435.025
YUBILEINY 27 Apr 22:50:18 22:58:54 62° 268° (W) 23:07:23 435.215
CUBEBUG 2 27 Apr 22:59:23 23:02:37 19° 269° (W) 23:05:50 437.445
ANTELSAT 27 Apr 23:00:53 23:05:08 33° 95° (E) 23:09:21 437.575/2403.000
QB50P2 27 Apr 23:07:21 23:10:14 18° 92° (E) 23:13:15 145.880/145.840
DELFI C3 27 Apr 23:15:24 23:17:17 12° 271° (W) 23:18:58 145.870
UWE-3 27 Apr 23:21:34 23:24:00 14° 272° (W) 23:26:15 435.000/436.395/437.385
O/OREOS (USA 219) 27 Apr 23:21:56 23:25:37 23° 303° (WNW) 23:29:12 437.305
NANOSAT C BR1 27 Apr 23:23:16 23:26:52 26° 95° (E) 23:30:29 145.865
FUNcube-1 27 Apr 23:24:17 23:27:07 16° 270° (W) 23:29:49 145.935
UKube-1 27 Apr 23:24:50 23:28:24 24° 265° (W) 23:31:54 .
HUMSAT D 27 Apr 23:25:27 23:29:09 29° 265° (W) 23:32:52 437.325/437.525
POPSAT HIP 1 27 Apr 23:27:27 23:31:11 29° 95° (E) 23:34:58 437.405
ESTCUBE 1 27 Apr 23:30:05 23:34:37 85° 257° (WSW) 23:39:08 437.505/2401.250
SPROUT 27 Apr 23:35:14 23:38:42 25° 69° (ENE) 23:42:15 437.525
BUGSAT 1 27 Apr 23:39:33 23:43:05 27° 95° (E) 23:46:41 437.445
TIGRISAT 27 Apr 23:49:39 23:54:23 77° 284° (WNW) 23:59:01 435.000
50 SAT 27 Apr 23:49:45 23:53:00 23° 266° (W) 23:56:12 437.505
UNISAT 6 27 Apr 23:55:05 23:59:47 66° 285° (WNW) 00:04:22 437.425
Cosmos 2504 27 Apr 23:55:36 00:02:47 36° 70° (ENE) 00:09:37 435.465 / 435.565
DUCHIFAT 1 27 Apr 23:56:00 00:00:15 60° 101° (E) 00:04:29 145.980
POLYITAN 1 27 Apr 23:57:56 00:02:15 66° 101° (E) 00:06:33 437.675
CUBEBUG 1 27 Apr 23:59:20 00:03:28 44° 261° (W) 00:07:37 437.445
VELOX 1 28 Apr 00:01:58 00:05:22 21° 267° (W) 00:08:39 145.980
QB50P1 28 Apr 00:15:04 00:19:23 80° 284° (WNW) 00:23:40 145.935-145.965
AIST 1 28 Apr 00:21:42 00:25:45 43° 93° (E) 00:29:50
AISAT 28 Apr 00:22:25 00:24:30 13° 271° (W) 00:26:20 437.250
TISAT 1 28 Apr 00:30:26 00:34:37 83° 78° (ENE) 00:38:50 437.305
RS-15 28 Apr 00:33:18 00:44:30 55° 247° (WSW) 00:56:01 29.354- 29.394
ANTELSAT 28 Apr 00:37:54 00:41:47 25° 292° (WNW) 00:45:31 437.575/2403.000
BEESAT 28 Apr 00:38:06 00:41:12 18° 65° (ENE) 00:44:28 436.000
Cosmos 2491 28 Apr 00:38:15 00:45:38 28° 294° (WNW) 00:52:49 435.465 / 435.565
SWISSCUBE 28 Apr 00:40:41 00:44:06 20° 66° (ENE) 00:47:39 437.505
QB50P2 28 Apr 00:42:18 00:46:19 39° 289° (WNW) 00:50:19 145.880/145.840
NANOSAT C BR1 28 Apr 00:59:01 01:02:40 27° 291° (WNW) 01:06:15 145.865
POPSAT HIP 1 28 Apr 01:03:27 01:06:59 24° 291° (WNW) 01:10:26 437.405
BEESAT 3 28 Apr 01:09:19 01:09:57 10° 109° (ESE) 01:10:49 437.485
SPROUT 28 Apr 01:11:02 01:14:43 27° 265° (W) 01:18:22 437.525
BUGSAT 1 28 Apr 01:15:03 01:18:30 25° 291° (WNW) 01:21:53 437.445
Oscar 19 28 Apr 01:24:25 01:27:54 18° 91° (E) 01:31:34 437.125/150
KKS-1 28 Apr 01:32:43 01:33:40 11° 62° (ENE) 01:34:53 437.445
DUCHIFAT 1 28 Apr 01:33:36 01:35:37 13° 295° (WNW) 01:37:27 145.980
POLYITAN 1 28 Apr 01:35:56 01:37:41 12° 296° (WNW) 01:39:14 437.675
ITUPSAT 1 28 Apr 01:44:38 01:49:25 79° 75° (ENE) 01:54:14 437.325
Cosmos 2504 28 Apr 01:48:58 01:56:20 42° 272° (W) 02:03:09 435.465 / 435.565
CUSAT 1 28 Apr 02:00:34 02:01:57 11° 55° (NE) 02:04:00 437.405
AIST 1 28 Apr 02:01:03 02:03:42 15° 291° (WNW) 02:06:11
ITAMSAT 1 28 Apr 02:05:35 02:07:46 13° 88° (E) 02:10:16 435.822/435.867
BEESAT 28 Apr 02:14:03 02:18:42 51° 261° (W) 02:23:22 436.000
SWISSCUBE 28 Apr 02:17:08 02:21:42 44° 261° (W) 02:26:16 437.505
STARS 28 Apr 02:18:47 02:22:00 21° 67° (ENE) 02:25:21 437.465
AIST 2 28 Apr 02:27:09 02:30:14 20° 112° (ESE) 02:33:28 435.215
BEESAT 3 28 Apr 02:43:23 02:47:27 70° 304° (WNW) 02:51:35 437.485
BEESAT 2 28 Apr 02:48:00 02:52:07 76° 303° (WNW) 02:56:17 435.950
Gurwin Techsat 1B 28 Apr 02:48:08 02:52:47 31° 95° (E) 02:57:29 435.225
DANDE 28 Apr 02:53:06 02:58:40 22° 65° (ENE) 03:05:03 436.750
Oscar 19 28 Apr 03:02:34 03:07:39 53° 288° (WNW) 03:12:41 437.125/150
KKS-1 28 Apr 03:05:18 03:09:45 78° 257° (WSW) 03:14:13 437.445
GONETS M04 28 Apr 03:13:01 03:21:30 48° 74° (ENE) 03:29:58
ITUPSAT 1 28 Apr 03:27:00 03:28:00 10° 273° (W) 03:28:40 437.325
CUSAT 1 28 Apr 03:38:54 03:46:29 53° 75° (ENE) 03:54:37 437.405
ITAMSAT 1 28 Apr 03:42:44 03:47:55 73° 286° (WNW) 03:53:05 435.822/435.867
HORYU 2 28 Apr 03:43:08 03:46:17 19° 92° (E) 03:49:32 437.375
JAS-2 28 Apr 03:49:10 03:53:00 18° 86° (E) 03:56:50 435.910
MOZHAYETS 4 28 Apr 03:51:35 03:55:05 22° 68° (ENE) 03:58:43
STARS 28 Apr 03:54:12 03:58:16 36° 263° (W) 04:02:19 437.465
AIST 2 28 Apr 04:04:33 04:08:36 40° 308° (NW) 04:12:39 435.215
Cosmos 2499 28 Apr 04:10:34 04:15:07 17° 60° (ENE) 04:19:53 435.465 / 435.565
BEESAT 3 28 Apr 04:25:53 04:26:18 10° 324° (NW) 04:26:33 437.485
Gurwin Techsat 1B 28 Apr 04:28:01 04:32:46 33° 292° (WNW) 04:37:27 435.225
BEESAT 2 28 Apr 04:29:51 04:31:01 11° 323° (NW) 04:32:01 435.950
DANDE 28 Apr 04:34:58 04:42:44 86° 262° (W) 04:51:22 436.750
AO-7 28 Apr 04:57:47 05:06:02 63° 103° (ESE) 05:14:18 29.400- 29.500
GONETS M04 28 Apr 05:10:15 05:18:11 37° 273° (W) 05:25:54
HORYU 2 28 Apr 05:18:55 05:23:08 39° 289° (WNW) 05:27:17 437.375
CUSAT 1 28 Apr 05:22:00 05:29:04 36° 270° (W) 05:36:19 437.405
M-CUBED/EXP-1 PRIME 28 Apr 05:22:16 05:26:20 28° 64° (ENE) 05:30:27 437.505
MOZHAYETS 4 28 Apr 05:27:48 05:32:07 37° 263° (W) 05:36:26
JAS-2 28 Apr 05:32:43 05:38:55 62° 288° (WNW) 05:44:22 435.910
CUBESAT XI-V 28 Apr 05:35:32 05:38:58 22° 67° (ENE) 05:42:31 437.345
AUBIESAT-1 28 Apr 06:01:22 06:06:05 59° 69° (ENE) 06:10:48 437.475
Cosmos 2499 28 Apr 06:01:53 06:09:39 86° 264° (W) 06:16:51 435.465 / 435.565
DANDE 28 Apr 06:20:12 06:25:24 18° 275° (W) 06:30:24 436.750
PCSat 28 Apr 06:34:26 06:35:54 11° 104° (ESE) 06:37:43 145.827
PRISM 28 Apr 06:34:50 06:38:54 54° 74° (ENE) 06:42:58 437.425
STRAND 1 28 Apr 06:44:59 06:49:58 55° 72° (ENE) 06:54:57 437.568
AO-7 28 Apr 06:51:20 06:58:24 31° 302° (WNW) 07:05:17 29.400- 29.500
CUTE-I 28 Apr 06:52:07 06:57:09 42° 98° (E) 07:02:11 437.470
M-CUBED/EXP-1 PRIME 28 Apr 06:56:37 07:01:02 35° 259° (W) 07:05:26 437.505
Cubesat XI-IV 28 Apr 07:02:29 07:07:41 53° 100° (E) 07:12:53 437.490
CUBESAT XI-V 28 Apr 07:11:53 07:16:13 38° 263° (W) 07:20:30 437.345
AUBIESAT-1 28 Apr 07:38:13 07:41:13 16° 265° (W) 07:44:01 437.475
O/OREOS (USA 219) 28 Apr 07:51:46 07:56:15 68° 66° (ENE) 08:00:42 437.305
Cosmos 2499 28 Apr 07:57:57 08:01:36 14° 282° (WNW) 08:04:39 435.465 / 435.565
PRISM 28 Apr 08:13:00 08:14:45 12° 270° (W) 08:16:18 437.425
PCSat 28 Apr 08:13:12 08:18:38 90° 255° (WSW) 08:24:07 145.827
STRAND 1 28 Apr 08:26:11 08:29:34 17° 270° (W) 08:32:46 437.568
CANX-2 28 Apr 08:29:52 08:31:23 12° 88° (E) 08:33:07 2200.000
CUTE-I 28 Apr 08:32:42 08:37:02 25° 294° (WNW) 08:41:14 437.470
CUTE 1.7 + AOD 2 28 Apr 08:38:08 08:40:09 13° 89° (E) 08:42:23 437.475
Cubesat XI-IV 28 Apr 08:43:32 08:47:26 21° 296° (WNW) 08:51:12 437.490
GOMX 1 28 Apr 08:45:44 08:50:17 30° 94° (E) 08:55:04 467.674
Cosmos 2491 28 Apr 08:50:32 08:58:01 31° 68° (ENE) 09:05:43 435.465 / 435.565
DOVE 4 28 Apr 09:08:43 09:13:23 33° 95° (E) 09:18:11 437.250
BRITE-PL 28 Apr 09:12:04 09:17:17 79° 102° (ESE) 09:22:51 437.365/2234.400
UNISAT 6 28 Apr 09:20:17 09:21:48 12° 62° (ENE) 09:23:34 437.425
COMPASS 1 28 Apr 09:20:40 09:24:14 27° 95° (E) 09:27:49 437.405
HO-68 28 Apr 09:26:46 09:33:46 54° 100° (E) 09:40:46 435.675
CINEMA 3 28 Apr 09:32:34 09:36:53 29° 94° (E) 09:41:16 145.822/145.860
O/OREOS (USA 219) 28 Apr 09:33:57 09:35:09 11° 261° (W) 09:36:04 437.305
UWE-3 28 Apr 09:35:03 09:36:45 12° 87° (E) 09:38:42 435.000/436.395/437.385
SEEDS 28 Apr 09:50:12 09:54:27 75° 101° (ESE) 09:58:39 437.485
Oscar 11 28 Apr 09:54:39 09:58:17 26° 94° (E) 10:01:57 145.826/435.025
YUBILEINY 28 Apr 09:55:08 10:02:33 33° 85° (E) 10:10:11 435.215
PCSat 28 Apr 09:59:28 10:02:54 16° 319° (NW) 10:06:11 145.827
ANTELSAT 28 Apr 09:59:43 10:03:38 29° 69° (ENE) 10:07:41 437.575/2403.000
AAUSAT CUBESAT 2 28 Apr 10:00:25 10:04:36 67° 101° (E) 10:08:45 437.432
QB50P2 28 Apr 10:01:09 10:03:16 14° 65° (ENE) 10:05:34 145.880/145.840
ZACube-1 28 Apr 10:02:21 10:05:33 19° 91° (E) 10:08:51 437.345
CANX-2 28 Apr 10:03:33 10:07:46 57° 286° (WNW) 10:11:55 2200.000
CUTE 1.7 + AOD 2 28 Apr 10:12:17 10:16:27 50° 286° (WNW) 10:20:33 437.475
NANOSAT C BR1 28 Apr 10:16:16 10:19:15 20° 67° (ENE) 10:22:21 145.865
POPSAT HIP 1 28 Apr 10:20:34 10:23:46 22° 68° (ENE) 10:27:04 437.405
GOMX 1 28 Apr 10:23:41 10:28:24 35° 289° (WNW) 10:33:16 467.674
BUGSAT 1 28 Apr 10:30:17 10:33:01 18° 67° (ENE) 10:35:52 437.445
AIST 1 28 Apr 10:31:21 10:32:19 11° 66° (ENE) 10:33:31
SO-50 28 Apr 10:32:37 10:36:34 29° 114° (ESE) 10:40:44 436.795
DX 1 28 Apr 10:33:20 10:36:41 22° 94° (E) 10:40:08 434.975-435.025
AISAT 28 Apr 10:36:34 10:37:46 11° 88° (E) 10:39:15 437.250
ISS 28 Apr 10:43:00 10:45:55 32° 136° (SE) 10:48:53 145.825
DOVE 4 28 Apr 10:46:31 10:51:04 31° 290° (WNW) 10:55:37 437.250
Cosmos 2491 28 Apr 10:46:51 10:55:29 59° 268° (W) 11:04:02 435.465 / 435.565
TIGRISAT 28 Apr 10:47:46 10:52:19 89° 78° (ENE) 10:57:00 435.000
DUCHIFAT 1 28 Apr 10:48:11 10:52:08 42° 72° (ENE) 10:56:09 145.980
AIST 2 28 Apr 10:48:53 10:51:29 16° 41° (NE) 10:54:12 435.215
CUBEBUG 2 28 Apr 10:49:03 10:53:52 90° 271° (W) 10:58:38 437.445
POLYITAN 1 28 Apr 10:50:42 10:54:44 47° 73° (ENE) 10:58:52 437.675
DELFI C3 28 Apr 10:52:27 10:56:31 89° 282° (WNW) 11:00:32 145.870
BRITE-PL 28 Apr 10:52:28 10:55:20 15° 296° (WNW) 10:58:02 437.365/2234.400
UNISAT 6 28 Apr 10:53:25 10:57:59 77° 259° (W) 11:02:39 437.425
COMPASS 1 28 Apr 10:56:23 10:59:51 25° 291° (WNW) 11:03:12 437.405
BEESAT 3 28 Apr 11:02:28 11:06:33 64° 56° (NE) 11:10:33 437.485
QB50P1 28 Apr 11:07:21 11:11:33 73° 75° (ENE) 11:15:47 145.935-145.965
BEESAT 2 28 Apr 11:07:38 11:11:43 60° 55° (NE) 11:15:44 435.950
UWE-3 28 Apr 11:09:09 11:13:51 68° 285° (WNW) 11:18:28 435.000/436.395/437.385
HUMSAT D 28 Apr 11:09:16 11:13:27 46° 98° (E) 11:17:35 437.325/437.525
CINEMA 3 28 Apr 11:09:36 11:14:04 33° 290° (WNW) 11:18:30 145.822/145.860
FUNcube-1 28 Apr 11:10:55 11:15:33 82° 284° (WNW) 11:20:06 145.935
UKube-1 28 Apr 11:11:38 11:15:53 54° 100° (E) 11:20:09 .
HO-68 28 Apr 11:15:04 11:21:13 31° 298° (WNW) 11:27:10 435.675
ESTCUBE 1 28 Apr 11:23:54 11:27:11 20° 92° (E) 11:30:36 437.505/2401.250
50 SAT 28 Apr 11:26:16 11:30:07 42° 98° (E) 11:33:56 437.505
SEEDS 28 Apr 11:29:06 11:29:42 10° 297° (WNW) 11:30:04 437.485
Oscar 11 28 Apr 11:30:44 11:34:26 27° 291° (WNW) 11:38:03 145.826/435.025
QB50P2 28 Apr 11:34:39 11:38:46 52° 260° (W) 11:42:57 145.880/145.840
ANTELSAT 28 Apr 11:36:28 11:40:24 27° 266° (W) 11:44:21 437.575/2403.000
ZACube-1 28 Apr 11:37:45 11:42:08 42° 288° (WNW) 11:46:25 437.345
AAUSAT CUBESAT 2 28 Apr 11:38:31 11:39:43 11° 296° (WNW) 11:40:43 437.432
CUBEBUG 1 28 Apr 11:48:24 11:52:20 32° 96° (E) 11:56:18 437.445
YUBILEINY 28 Apr 11:50:26 11:59:03 54° 284° (WNW) 12:07:38 435.215
NANOSAT C BR1 28 Apr 11:51:00 11:54:53 35° 263° (W) 11:58:46 145.865
VELOX 1 28 Apr 11:51:20 11:55:47 74° 102° (ESE) 12:00:14 145.980
POPSAT HIP 1 28 Apr 11:55:43 11:59:29 31° 264° (W) 12:03:16 437.405
BUGSAT 1 28 Apr 12:04:37 12:08:18 34° 263° (W) 12:11:59 437.445
AIST 1 28 Apr 12:06:17 12:10:31 63° 265° (W) 12:14:44
DX 1 28 Apr 12:09:05 12:13:02 33° 290° (WNW) 12:16:54 434.975-435.025
AISAT 28 Apr 12:10:27 12:14:53 67° 286° (WNW) 12:19:20 437.250
SO-50 28 Apr 12:12:44 12:17:03 35° 312° (NW) 12:21:28 436.795
TISAT 1 28 Apr 12:16:55 12:18:56 13° 90° (E) 12:21:10 437.305
ISS 28 Apr 12:19:18 12:22:16 31° 333° (NNW) 12:25:15 145.825
DUCHIFAT 1 28 Apr 12:25:34 12:28:13 16° 269° (W) 12:30:42 145.980
AIST 2 28 Apr 12:26:20 12:30:33 65° 241° (WSW) 12:34:40 435.215
POLYITAN 1 28 Apr 12:28:37 12:31:00 14° 270° (W) 12:33:12 437.675
CUBEBUG 2 28 Apr 12:28:46 12:29:53 11° 298° (WNW) 12:30:44 437.445
Cosmos 2504 28 Apr 12:32:36 12:40:07 34° 86° (E) 12:47:43 435.465 / 435.565
Oscar 19 28 Apr 12:40:52 12:45:05 27° 67° (ENE) 12:49:27 437.125/150
BEESAT 3 28 Apr 12:42:42 12:44:04 11° 251° (WSW) 12:45:14 437.485
HUMSAT D 28 Apr 12:46:04 12:48:52 16° 294° (WNW) 12:51:30 437.325/437.525
RS-15 28 Apr 12:47:04 12:55:07 26° 104° (ESE) 13:03:44 29.354- 29.394
BEESAT 2 28 Apr 12:47:36 12:49:23 12° 250° (WSW) 12:50:57 435.950
UKube-1 28 Apr 12:49:12 12:51:38 14° 296° (WNW) 12:53:53 .
SPROUT 28 Apr 12:57:12 13:01:26 50° 100° (E) 13:05:39 437.525
ESTCUBE 1 28 Apr 13:00:04 13:04:13 37° 289° (WNW) 13:08:18 437.505/2401.250
50 SAT 28 Apr 13:02:07 13:04:36 15° 294° (WNW) 13:06:55 437.505
ITAMSAT 1 28 Apr 13:22:48 13:26:32 21° 65° (ENE) 13:30:26 435.822/435.867
CUBEBUG 1 28 Apr 13:25:06 13:28:34 23° 292° (WNW) 13:31:56 437.445
VELOX 1 28 Apr 13:30:15 13:31:50 11° 297° (WNW) 13:33:10 145.980
ITUPSAT 1 28 Apr 13:46:24 13:49:53 21° 92° (E) 13:53:29 437.325
TISAT 1 28 Apr 13:50:56 13:55:05 51° 286° (WNW) 13:59:13 437.305
ISS 28 Apr 13:57:43 13:59:24 13° 353° (N) 14:01:03 145.825
JAS-2 28 Apr 14:02:40 14:05:21 13° 55° (NE) 14:08:27 435.910
AO-7 28 Apr 14:07:39 14:12:47 19° 51° (NE) 14:18:15 29.400- 29.500
Gurwin Techsat 1B 28 Apr 14:08:51 14:13:54 48° 71° (ENE) 14:19:01 435.225
BEESAT 28 Apr 14:14:32 14:19:02 40° 98° (E) 14:23:30 436.000
SWISSCUBE 28 Apr 14:17:31 14:22:07 47° 99° (E) 14:26:42 437.505
Oscar 19 28 Apr 14:19:32 14:24:18 37° 263° (W) 14:29:06 437.125/150
Cosmos 2504 28 Apr 14:24:32 14:33:13 55° 284° (WNW) 14:41:44 435.465 / 435.565
SPROUT 28 Apr 14:34:34 14:37:09 15° 294° (WNW) 14:39:34 437.525
HORYU 2 28 Apr 14:41:37 14:44:38 18° 66° (ENE) 14:47:48 437.375
RS-15 28 Apr 14:55:29 15:06:24 80° 305° (NW) 15:17:36 29.354- 29.394
KKS-1 28 Apr 14:57:28 15:00:47 21° 93° (E) 15:04:13 437.445
ITAMSAT 1 28 Apr 15:00:44 15:05:45 49° 261° (W) 15:10:46 435.822/435.867
VERMONT LUNAR 28 Apr 15:15:40 15:18:23 23° 153° (SSE) 15:21:10 437.305
PCSat 28 Apr 15:19:57 15:22:17 13° 37° (NE) 15:24:50 145.827
ITUPSAT 1 28 Apr 15:23:30 15:27:59 41° 289° (WNW) 15:32:25 437.325
ISS 28 Apr 15:34:45 15:36:46 15° 13° (NNE) 15:38:48 145.825
JAS-2 28 Apr 15:41:33 15:49:13 60° 72° (ENE) 15:56:35 435.910
STARS 28 Apr 15:43:52 15:48:05 40° 98° (E) 15:52:18 437.465
Gurwin Techsat 1B 28 Apr 15:50:07 15:54:11 21° 268° (W) 15:58:06 435.225
BEESAT 28 Apr 15:52:59 15:56:38 22° 294° (WNW) 16:00:10 436.000
AO-7 28 Apr 15:56:13 16:04:29 81° 71° (ENE) 16:12:49 29.400- 29.500
SWISSCUBE 28 Apr 15:56:17 15:59:39 19° 295° (WNW) 16:02:52 437.505
GONETS M04 28 Apr 16:13:22 16:21:47 56° 91° (E) 16:30:21
PHONESAT 2.4 28 Apr 16:15:20 16:18:16 24° 153° (SSE) 16:21:15 2401.200-2431.200
HORYU 2 28 Apr 16:16:41 16:20:59 44° 261° (W) 16:25:18 437.375
Cosmos 2504 28 Apr 16:27:16 16:29:04 10° 307° (NW) 16:30:07 435.465 / 435.565
KKS-1 28 Apr 16:33:25 16:37:34 37° 289° (WNW) 16:41:40 437.445
CUSAT 1 28 Apr 16:48:07 16:51:42 39° 90° (E) 16:56:27 437.405
Cosmos 2499 28 Apr 16:48:17 16:52:30 15° 79° (E) 16:57:15 435.465 / 435.565
Cubesat XI-IV 28 Apr 16:48:33 16:50:12 12° 59° (ENE) 16:52:10 437.490
VERMONT LUNAR 28 Apr 16:52:12 16:55:34 70° 167° (SSE) 16:58:56 437.305
PCSat 28 Apr 17:01:25 17:06:50 68° 59° (ENE) 17:12:14 145.827
ISS 28 Apr 17:10:32 17:13:43 50° 32° (NNE) 17:16:54 145.825
RS-15 28 Apr 17:11:41 17:20:56 29° 332° (NNW) 17:30:15 29.354- 29.394
STARS 28 Apr 17:21:03 17:24:17 19° 294° (WNW) 17:27:23 437.465
MOZHAYETS 4 28 Apr 17:22:52 17:27:21 51° 99° (E) 17:31:48
JAS-2 28 Apr 17:27:52 17:34:36 29° 268° (W) 17:40:56 435.910
DANDE 28 Apr 17:48:42 17:52:13 58° 284° (WNW) 17:56:58 436.750
AO-7 28 Apr 17:52:16 17:58:18 21° 270° (W) 18:03:57 29.400- 29.500
PHONESAT 2.4 28 Apr 17:52:39 17:56:13 70° 169° (SSE) 17:59:48 2401.200-2431.200
GONETS M04 28 Apr 18:11:22 18:19:08 33° 292° (WNW) 18:26:46
CUTE-I 28 Apr 18:13:42 18:18:58 68° 74° (ENE) 18:24:16 437.470
Cubesat XI-IV 28 Apr 18:24:16 18:29:36 85° 78° (ENE) 18:34:58 437.490
VERMONT LUNAR 28 Apr 18:29:37 18:33:00 84° 190° (S) 18:36:24 437.305
CUSAT 1 28 Apr 18:32:03 18:34:59 17° 300° (WNW) 18:38:18 437.405
Cosmos 2499 28 Apr 18:35:44 18:44:36 79° 95° (E) 18:53:10 435.465 / 435.565
M-CUBED/EXP-1 PRIME 28 Apr 18:39:54 18:42:32 17° 95° (E) 18:45:10 437.505
PCSat 28 Apr 18:46:23 18:49:45 16° 254° (WSW) 18:52:52 145.827
ISS 28 Apr 18:47:32 18:49:50 18° 227° (SW) 18:52:04 145.825
STRAND 1 28 Apr 18:56:43 19:00:11 19° 91° (E) 19:03:50 437.568
MOZHAYETS 4 28 Apr 19:01:18 19:04:12 16° 295° (WNW) 19:06:55
SO-50 28 Apr 19:03:51 19:08:08 29° 46° (NE) 19:12:28 436.795
CUBESAT XI-V 28 Apr 19:08:25 19:12:55 53° 99° (E) 19:17:27 437.345
AUBIESAT-1 28 Apr 19:18:18 19:22:09 42° 103° (ESE) 19:25:41 437.475
RS-15 28 Apr 19:30:38 19:38:27 21° 7° (N) 19:46:36 29.354- 29.394
PHONESAT 2.4 28 Apr 19:30:50 19:34:26 84° 186° (S) 19:38:02 2401.200-2431.200
CUTE 1.7 + AOD 2 28 Apr 19:32:33 19:33:21 11° 64° (ENE) 19:34:23 437.475
PRISM 28 Apr 19:52:43 19:56:50 86° 284° (WNW) 20:00:55 437.425
GOMX 1 28 Apr 19:54:41 19:58:09 25° 68° (ENE) 20:01:52 467.674
HO-68 28 Apr 19:55:06 20:01:36 40° 65° (ENE) 20:08:14 435.675
CUTE-I 28 Apr 19:56:35 19:59:38 15° 271° (W) 20:02:25 437.470
YUBILEINY 28 Apr 20:06:16 20:10:43 15° 57° (ENE) 20:15:42 435.215
VERMONT LUNAR 28 Apr 20:07:10 20:10:18 36° 202° (SSW) 20:13:26 437.305
Cubesat XI-IV 28 Apr 20:08:44 20:10:30 11° 273° (W) 20:11:55 437.490
COMPASS 1 28 Apr 20:12:18 20:15:17 19° 68° (ENE) 20:18:23 437.405
M-CUBED/EXP-1 PRIME 28 Apr 20:13:52 20:17:39 34° 295° (WNW) 20:21:05 437.505
DOVE 4 28 Apr 20:14:52 20:18:32 28° 69° (ENE) 20:22:25 437.250
BRITE-PL 28 Apr 20:23:33 20:27:43 83° 77° (ENE) 20:32:06 437.365/2234.400
Cosmos 2499 28 Apr 20:31:57 20:38:46 23° 296° (WNW) 20:45:04 435.465 / 435.565
CINEMA 3 28 Apr 20:34:41 20:38:10 24° 68° (ENE) 20:41:53 145.822/145.860
STRAND 1 28 Apr 20:34:48 20:39:45 50° 288° (WNW) 20:44:39 437.568
SEEDS 28 Apr 20:41:49 20:45:56 49° 74° (ENE) 20:50:06 437.485
SO-50 28 Apr 20:44:11 20:48:50 40° 244° (WSW) 20:53:22 436.795
CUBESAT XI-V 28 Apr 20:47:06 20:50:00 16° 295° (WNW) 20:52:44 437.345
Oscar 11 28 Apr 20:49:39 20:52:51 21° 68° (ENE) 20:56:11 145.826/435.025
AAUSAT CUBESAT 2 28 Apr 20:50:53 20:54:52 43° 73° (ENE) 20:58:55 437.432
AUBIESAT-1 28 Apr 20:54:06 20:56:35 16° 301° (WNW) 20:58:50 437.475
CANX-2 28 Apr 20:55:47 21:00:07 84° 260° (W) 21:04:27 2200.000
ZACube-1 28 Apr 20:59:02 21:01:27 15° 65° (ENE) 21:04:06 437.345
CUTE 1.7 + AOD 2 28 Apr 21:04:26 21:08:44 75° 258° (WSW) 21:13:03 437.475
PHONESAT 2.4 28 Apr 21:09:09 21:12:31 38° 202° (SSW) 21:15:52 2401.200-2431.200
